www.pogodaiklimat.ru

Погода и климат >> Архив погоды >> Россия >> Ростовская область >> Гигант


АРХИВ ПОГОДЫ в Гиганте

Время (UTC), дата Ветер
(напр.,м/с)
 
Видим.   Явления Облачность Т
(С)
Тd
(С)
f
(%)
Тe
(С)
Тes
(С)
Комфортность P
(гПа)
Po
(гПа)
Тmin
(С)
Tmax
(С)
R
(мм)
R24
(мм)
S
(см)
00 19.08 СЗ 2 20 км ясно +21.7 +18.8 84 +27 +27 душно 1012.0 1003.0
03 19.08 СЗ 4 20 км 3/3 600 м
[Sc Ac trans]
+20.6 +18.6 88 +25 +25 комфорт 1013.2 1004.1 +20.5
06 19.08 С 2 20 км 8/0
[Ac trans Ci fib]
+26.0 +18.3 63 +31 +36 очень
душно
1014.2 1005.3
09 19.08 С 5 20 км 5/0
[Ac trans]
+29.9 +15.6 42 +33 +38 душно 1014.4 1005.6
12 19.08 С 4 20 км 4/0
[Cc]
+32.6 +14.0 32 +34 +40 очень
жарко
1013.9 1005.1
15 19.08 С 5 20 км 1/0
[Ci fib]
+30.7 +16.6 43 +34 +35 очень
душно
1014.6 1005.8 +32.9
18 19.08 СЗ 3 20 км ясно +26.1 +16.6 56 +30 +30 душно 1016.1 1007.2
21 19.08 СЗ 3 20 км ясно +23.8 +17.7 69 +28 +28 душно 1016.4 1007.4
00 20.08 С 3 20 км ясно +21.3 +19.0 87 +26 +26 душно 1016.2 1007.1
03 20.08 С 3 20 км 3/3 600 м
[Sc]
+20.1 +19.0 93 +24 +24 комфорт 1016.9 1007.7 +20.1
06 20.08 С 3 20 км 4/0
[Ac lent]
+27.9 +16.5 50 +31 +36 душно 1016.9 1008.0
09 20.08 С 5 20 км 1/0
[Ac trans]
+33.2 +12.8 29 +34 +41 очень
жарко
1016.3 1007.6
12 20.08 С 6-10
{11}
20 км 3/0
[Ac lent]
+35.3 +13.2 26 +36 +38 очень
жарко
1014.6 1006.0
15 20.08 С 3
{10}
20 км 1/0
[Ac trans]
+34.8 +7.2 18 +33 +33 жарко 1014.6 1005.9 +35.6
18 20.08 С 4 20 км ясно +30.3 +10.3 29 +30 +30 жарко 1014.8 1006.0
21 20.08 СВ 3 20 км 8/0
[Ac trans Ci]
+27.3 +7.0 28 +27 +27 жарко 1014.9 1006.0
00 21.08 С 3 20 км ясно +22.3 +10.1 46 +24 +24 комфорт 1014.9 1005.8
03 21.08 С 2 20 км 6/3 600 м
[Sc Ac lent]
+20.8 +9.8 49 +23 +23 комфорт 1015.7 1006.6 +20.8
06 21.08 В 3 20 км 5/0
[Ci fib]
+27.7 +11.7 37 +29 +34 жарко 1015.9 1007.0 +20.2
09 21.08 В 5
{10}
20 км 6/0
[Ci fib]
+34.1 +6.5 18 +32 +39 жарко 1014.6 1005.9
12 21.08 В 5
{11}
20 км 3/0
[Ci fib]
+36.1 +4.2 14 +33 +38 жарко 1013.1 1004.4
15 21.08 В 3
{11}
20 км 3/0
[Ci fib]
+35.2 +1.9 12 +32 +32 жарко 1012.3 1003.7 +36.3
18 21.08 СВ 3 20 км ясно +30.0 +3.4 18 +28 +28 жарко 1012.6 1003.8
21 21.08 СВ 2 20 км ясно +27.0 +5.0 24 +26 +26 жарко 1012.7 1003.8
00 22.08 СВ 2 20 км ясно +24.5 +4.5 27 +24 +24 комфорт 1013.4 1004.4
03 22.08 СВ 2 20 км 4/1 1000 м
[Sc Ci fib]
+22.5 +5.5 33 +23 +23 комфорт 1013.6 1004.5 +22.1
06 22.08 В 3 20 км 5/0
[Ci fib]
+29.3 +9.2 29 +29 +35 жарко 1013.9 1005.0 +21.3
09 22.08 СВ 5 20 км 1/0
[Ci fib]
+35.0 +3.3 14 +32 +40 жарко 1013.1 1004.4
12 22.08 СВ 3
{11}
20 км 3/0
[Ci fib]
+36.8 +7.9 17 +35 +42 очень
жарко
1012.0 1003.3
15 22.08 В 3 20 км 8/0
[Ci fib]
+36.1 +6.0 16 +34 +34 очень
жарко
1011.4 1002.8 +37.3
18 22.08 С 5 20 км 4/0
[Ci fib]
+30.1 +8.7 26 +29 +29 жарко 1012.8 1004.0
21 22.08 С 4 20 км ясно +27.8 +8.4 29 +28 +28 жарко 1012.7 1003.8
00 23.08 С 2 20 км ясно +21.7 +9.2 45 +23 +23 комфорт 1012.8 1003.7
03 23.08 С 2 20 км 8/0
[Ci fib]
+19.4 +10.4 56 +21 +21 комфорт 1014.1 1005.0 +19.4
06 23.08 В 2 20 км 8/0
[Ci fib]
+29.3 +9.2 29 +29 +35 жарко 1014.2 1005.4
09 23.08 СВ 4 20 км 8/0
[Ci fib]
+35.4 +6.7 17 +33 +41 жарко 1013.5 1004.8
12 23.08 В 5
{11}
20 км пыльный позёмок 8/0
[Ac trans Cc]
+37.3 +4.2 13 +34 +38 очень
жарко
1012.4 1003.8
15 23.08 С 1
{10}
20 км {метель} 9/8 1000 м
[Sc Ac trans Ci fib]
+33.2 +6.5 19 +31 +31 жарко 1012.8 1004.1 +37.7
18 23.08 С 4 20 км {метель} 8/3 600 м
[Sc Ac trans Ci fib]
+30.8 +7.5 23 +30 +30 жарко 1013.4 1004.6
21 23.08 С 4
{11}
20 км 5/0
[Ac trans Ci fib]
+28.6 +9.5 30 +29 +29 жарко 1013.4 1004.5
00 24.08 СВ 3 20 км ясно +26.2 +10.0 36 +27 +27 жарко 1013.7 1004.8
03 24.08 С 2 20 км 4/0
[Ac cast Ci fib]
+22.8 +10.7 46 +25 +25 комфорт 1014.6 1005.6 +22.8
06 24.08 СВ 4 20 км 8/1 600 м
[Sc Ac trans Ci fib]
+29.3 +10.6 31 +29 +32 жарко 1014.7 1005.9
09 24.08 СВ 6-10
{10}
20 км 5/3 600 м
[Sc Ac trans]
+36.3 +6.8 16 +34 +37 очень
жарко
1013.1 1004.5
12 24.08 СВ 5-11
{13}
20 км пыльный позёмок 9/0
[Ac trans Ci]
+37.7 +5.1 13 +35 +38 очень
жарко
1012.5 1003.9
15 24.08 С 6-11
{14}
20 км пыльный позёмок 8/6 600 м
[Cb cap Ac trans Ci]
+33.7 +9.8 23 +33 +33 жарко 1013.0 1004.3 +38.0
18 24.08 С 4
{11}
20 км {метель} 6/0
[Ac trans Ci fib]
+29.9 +10.3 30 +30 +30 жарко 1014.2 1005.4
21 24.08 С 5 20 км 4/0
[Ci fib]
+28.0 +9.9 32 +28 +28 жарко 1013.6 1004.8
00 25.08 С 3
{10}
20 км 9/9 600 м
[Sc]
+25.6 +10.4 38 +26 +26 жарко 1013.6 1004.6
03 25.08 С 4 20 км 9/8 600 м
[Cb cap Ci]
+24.3 +11.8 46 +26 +26 жарко 1014.5 1005.5 +24.3
06 25.08 СВ 3 20 км 8/4 600 м
[Sc Ac lent]
+26.8 +11.9 40 +28 +30 жарко 1015.4 1006.5
09 25.08 СВ 4 20 км 9/6 600 м
[Cb cap Ac lent]
+28.4 +11.7 36 +29 +31 жарко 1015.6 1006.7
12 25.08 В 6
{10}
20 км {ливн. осадки} 10/5 1000 м
[Sc Ac lent Ci]
+30.9 +11.7 31 +31 +32 жарко 1015.8 1007.0
15 25.08 В 4 20 км 8/0
[Ac lent]
+29.2 +11.9 34 +30 +30 жарко 1016.7 1007.9 +31.5 0.0
18 25.08 В 2 20 км ясно +23.9 +12.2 48 +26 +26 жарко 1018.6 1009.6

 

Местоположение метеостанции Гигант (Ростовская область, Россия): широта 46.52 долгота 41.35 высота над уровнем моря 79 м.

В архиве по умолчанию представлена погода в Гиганте за последнюю неделю. Архивные данные за месяц целиком и за предыдущие месяцы, начиная с января 2011 года, Вы можете получить, выбрав интересующий диапазон дат из раскрывающегося списка и нажав кнопку "Ввод!".


*Определитесь, кто Вы:
робот инопланетянин человек

Внимание! Время в таблицах - всемирное. Для получения местного времени необходимо прибавить поправку, которая равна 3 ч.

Смотрите также архив погоды в соседних городах и на ближайших метеорологических станциях:

Погода в Белой Глине (Краснодарский край, Россия) (61 км)
Погода в Городовиковске (Калмыкия, Россия) (69 км)
Погода в Красногвардейском (Ставропольский край, Россия) (77 км)
Погода в Зерноград (Ростовская область, Россия) (87 км)
Погода в Зимовниках (Ростовская область, Россия) (111 км)
Погода в Новоалександровске (Ставропольский край, Россия) (114 км)
Погода в Семикаракорске (Ростовская область, Россия) (118 км)
Погода в Константиновске (Ростовская область, Россия) (119 км)
Погода в Тихорецке (Краснодарский край, Россия) (123 км)
Погода в Сосыке (Краснодарский край, Россия) (125 км)

Пояснения к столбцам:

Ветер - указаны скорость ветра в м/с - средняя за 10 мин, порывы в срок и между сроками (в фигурных скобках) и направление, откуда дует ветер: С - северный, СВ - северо-восточный, В - восточный, ЮВ - юго-восточный, Ю - южный, ЮЗ - юго-западный, З - западный, СЗ - северо-западный.
Видимость - горизонтальная дальность видимости в метрах или километрах. При видимости от 1 до 10 км при отсутствии осадков обычно наблюдается дымка, при ухудшении видимости до 1 км и менее - туман. В сухую погоду видимость может ухудшаться дымом, пылью или мглою.
Явления - указаны атмосферные явления, наблюдавшиеся в срок или в последний час перед сроком; фигурными скобками обозначены явления, наблюдавшиеся между сроками (за 1-3 часа до срока); квадратными скобками обозначены град или гололедные отложения с указанием их диаметра в мм.
Облачность - указаны через наклонную черту общая и нижняя облачность в баллах и высота нижней границы облаков в метрах; квадратными скобками обозначены формы облаков: Ci - перистые, Cs - перисто-слоистые, Cc - перисто-кучевые, Ac - высококучевые, As - высокослоистые, Sc - слоисто-кучевые, Ns - слоисто-дождевые, Cu - кучевые, Cb - кучево-дождевые. Подробнее классификацию облаков см. в Атласе облаков (PDF).
T - Температура воздуха - температура, измеренная на высоте 2 м над землей.
Td - Температура точки росы - температура, при понижении до которой содержащийся в воздухе водяной пар достигнет насыщения.
f - Относительная влажность воздуха - влажноcть воздуха, измеренная на высоте 2 м над землей.
Te - Эффективная температура - температура, которую ощущает одетый по сезону человек в тени. Характеристика душности погоды. При расчете учитывается влияние влажности воздуха и скорости ветра на теплоощущения человека.
Tes - Эффективная температура на солнце - температура, которую ощущает человек, с поправкой на солнечный нагрев. Характеристика знойности погоды. Зависит от высоты солнца над горизонтом, облачности и скорости ветра. Ночью, в пасмурную погоду, а также при ветре 12 м/с и более поправка равна нулю.
P - Атмосферное давление - приведенное к уровню моря атмосферное давление.
Po - Атмосферное давление - измеренное на уровне метеостанции атмосферное давление.
Tmin - Минимальная температура - минимум температуры воздуха на высоте 2 м над землей.
Tmax - Максимальная температура - максимум температуры воздуха на высоте 2 м над землей.
R - Количество осадков - Количество выпавших осадков за период времени, мм. При наведении курсора мыши на число - период времени, за который выпало указанное количество осадков.
R24 - Количество осадков - Количество выпавших осадков за 24 часа, мм.
S - Снежный покров - Высота снежного покрова, см. При наведении курсора мыши на число - состояние снежного покрова и степень покрытия местности в баллах.